Wind_Speed
46 43 43 43 42 41 42 42 43 40 39 35 34 33 31 31 29 29 29 29 29 29 31 32 34 36 39 42 45 48 50 51 51 52 53 55 54 52 53 51 48 47 48 49
45 43 43 43 41 41 41 41 41 40 37 34 35 33 31 30 29 29 29 28 29 30 31 33 34 35 37 41 44 47 50 51 52 52 53 53 53 52 51 51 50 46 47 47
45 43 44 43 40 39 39 38 38 39 37 34 33 32 30 29 28 28 28 28 29 30 31 32 34 35 36 40 43 46 48 50 53 53 51 52 53 52 51 51 50 47 45 46
46 45 46 43 39 39 39 37 37 37 34 34 33 32 31 30 28 28 29 29 30 31 32 32 33 34 36 39 42 45 47 51 53 52 50 51 53 52 50 51 50 47 45 44
46 47 47 42 39 38 38 36 34 34 33 33 32 31 30 29 28 28 30 30 31 31 32 33 33 33 35 38 41 44 46 49 52 54 52 51 51 51 50 50 50 48 45 43
46 47 47 42 40 39 38 37 33 33 32 31 31 30 28 28 28 28 28 30 31 32 32 33 34 34 34 38 40 42 45 48 50 53 53 52 51 50 49 49 49 48 45 42
45 46 46 41 40 39 37 36 34 32 31 31 31 30 28 27 28 27 27 29 30 32 33 33 34 34 34 37 40 42 44 46 49 52 53 52 52 51 50 48 47 47 45 42
44 45 43 40 40 38 37 36 35 33 32 31 30 29 28 28 28 28 28 28 30 31 32 33 33 33 33 36 39 41 42 44 47 50 50 51 52 52 51 49 48 47 45 44
44 43 42 41 39 37 37 37 36 34 32 31 30 29 29 29 29 29 29 29 30 31 31 32 33 33 33 35 38 40 41 42 44 46 47 50 51 51 50 49 48 47 45 44
44 42 41 40 38 37 37 37 35 34 33 33 32 30 31 31 30 29 29 29 30 30 31 32 34 35 34 35 38 39 38 40 42 43 44 46 48 50 49 48 47 46 45 44
43 41 41 39 38 37 37 36 34 33 33 33 33 32 31 30 30 30 30 29 30 30 31 32 34 36 35 36 37 39 39 39 41 42 42 42 44 46 47 47 46 45 43 42
42 41 41 39 38 37 36 35 34 33 33 33 33 32 32 30 29 30 30 30 30 30 31 32 34 35 35 36 37 37 39 39 40 41 42 41 41 43 45 44 43 44 43 42
41 40 40 38 37 36 36 35 34 33 32 32 32 33 32 31 30 29 30 30 31 31 31 32 33 35 36 38 38 37 38 39 39 40 41 41 41 41 42 43 42 42 41 41
39 39 38 37 35 34 34 33 33 32 31 31 32 32 32 30 29 28 29 29 30 30 31 31 32 34 36 38 38 38 38 38 39 39 40 41 41 41 42 41 40 40 40 40
37 36 35 34 33 33 32 32 32 31 31 31 31 31 31 29 28 27 27 27 28 28 29 30 31 33 36 37 38 38 38 38 38 39 39 40 41 41 41 41 40 39 39 40
33 33 32 32 32 32 31 31 30 30 31 31 31 31 31 29 27 26 26 26 26 27 28 29 30 32 35 37 37 38 38 38 38 39 40 40 40 41 41 40 40 39 38 38
31 30 31 31 31 31 30 30 30 30 30 30 31 31 30 28 26 25 25 25 25 26 27 28 30 32 34 36 36 37 38 38 39 40 40 40 40 41 41 41 41 40 38 37
29 29 30 30 29 29 29 29 29 29 29 29 28 28 27 25 23 23 23 23 24 25 25 26 29 31 33 34 36 37 37 38 39 40 40 40 40 40 41 41 41 40 39 37
28 28 28 27 27 27 27 27 27 26 25 25 24 23 22 21 21 21 21 21 22 22 24 25 26 28 31 33 35 37 37 38 39 40 40 39 39 40 41 41 40 39 37 36
27 27 26 26 26 26 25 24 24 23 22 21 21 20 19 18 18 19 19 20 21 22 23 25 26 27 29 31 34 35 36 38 39 39 40 40 39 40 40 40 39 38 36 35
25 24 24 24 24 23 22 21 21 20 19 19 18 17 16 15 15 15 16 17 19 20 22 24 26 27 29 30 32 34 35 37 38 39 41 41 39 39 39 39 38 37 35 34
22 22 22 22 21 20 20 20 19 18 17 16 14 14 13 12 12 12 13 14 16 18 20 23 25 27 29 30 31 33 35 37 38 39 40 41 40 39 38 38 38 37 35 33
20 20 19 19 18 18 18 17 17 15 13 12 11 11 10 9 9 10 11 13 14 16 19 22 24 26 27 29 31 33 36 37 38 38 38 38 38 37 37 37 37 37 35 32
18 17 17 16 16 15 15 15 13 12 11 10 10 9 8 8 8 8 10 12 14 16 18 21 24 25 26 28 30 33 35 37 37 37 37 37 36 36 37 37 36 35 33 31
16 15 15 14 13 13 13 12 11 10 9 8 8 7 7 7 7 8 10 12 14 15 18 21 23 24 26 27 29 32 33 35 35 36 36 36 36 36 36 36 35 33 31 30
14 14 13 13 12 11 10 9 8 8 7 6 6 6 5 5 7 7 9 11 14 16 18 20 22 24 26 27 29 30 32 33 33 33 34 34 35 35 35 34 33 31 30 29
13 12 12 11 10 9 8 7 6 5 5 5 5 4 4 5 7 8 10 12 14 16 18 19 21 24 26 27 28 29 31 33 33 33 33 33 33 33 33 32 31 30 29 28
Wind_Direction
303 303 300 298 299 297 294 295 295 298 297 299 295 289 284 282 277 269 264 261 256 251 247 243 239 235 230 228 225 224 222 219 217 218 221 221 222 222 223 223 224 226 227 229
302 302 300 298 299 297 296 296 295 295 296 296 292 287 283 281 276 269 262 259 256 252 249 243 239 235 232 229 227 225 223 221 219 219 221 221 222 222 223 224 224 225 227 229
301 301 299 299 302 298 296 296 295 293 294 292 288 284 284 281 276 270 262 257 253 252 250 243 238 235 233 230 227 226 223 221 220 219 220 221 221 222 223 225 224 225 227 230
299 299 297 304 302 298 297 296 295 294 292 290 288 283 282 281 276 270 263 258 254 252 249 244 239 236 233 231 229 227 224 221 220 219 220 220 220 221 223 225 224 226 228 230
298 299 300 303 302 299 296 294 293 292 291 290 287 283 281 279 275 271 264 259 255 251 248 244 240 238 234 230 228 227 224 223 222 221 220 220 219 220 223 224 225 225 227 229
298 299 301 304 301 299 294 292 292 290 289 288 286 282 281 277 275 272 266 260 255 251 248 244 242 240 234 230 228 227 225 225 224 223 222 221 219 220 221 222 225 226 226 228
298 298 300 303 300 297 292 294 290 287 288 287 285 282 280 276 274 272 266 261 256 251 248 244 242 240 236 233 229 227 226 226 225 224 223 222 221 220 220 222 224 225 226 227
296 296 300 300 297 294 292 289 288 286 286 285 284 281 277 275 273 271 266 261 256 251 248 245 242 239 236 234 230 227 225 225 225 224 223 222 222 221 221 222 224 226 226 227
293 295 297 297 296 292 289 288 286 285 283 282 281 278 276 274 271 269 267 262 256 251 247 243 240 238 235 232 228 226 225 225 224 224 224 223 223 222 221 223 224 225 227 227
292 294 294 293 293 290 287 287 286 283 281 279 280 279 277 274 270 269 267 263 258 252 247 243 239 236 235 231 227 224 223 224 223 222 223 223 223 223 221 222 223 224 226 227
291 292 292 291 291 290 287 286 284 283 281 279 278 278 276 274 271 268 266 262 259 253 248 244 240 236 234 229 226 223 222 222 221 221 221 220 220 222 222 221 220 221 222 223
289 289 290 291 290 289 287 286 284 282 281 280 278 276 275 274 272 269 265 260 258 255 250 245 241 236 230 226 224 222 221 221 220 219 218 218 218 219 220 219 218 219 220 220
287 287 288 290 290 288 286 285 283 282 282 280 279 276 275 273 271 267 263 259 257 254 249 244 239 233 228 225 223 221 220 219 218 216 216 217 216 217 218 219 219 218 218 219
286 286 287 288 288 287 286 285 284 283 282 280 279 277 275 273 271 267 262 258 256 252 247 242 236 230 225 222 220 219 218 216 215 214 214 214 214 215 217 217 217 217 217 217
286 286 287 287 286 286 286 286 285 283 281 280 278 277 276 274 270 265 260 256 253 249 245 238 233 228 223 219 217 216 216 214 213 212 211 211 210 212 214 214 214 214 215 215
284 285 286 286 286 286 286 287 285 284 282 280 278 277 276 274 270 263 259 254 250 245 241 236 229 224 220 217 216 215 215 214 212 210 208 208 208 209 209 209 210 210 212 214
283 283 285 286 285 285 286 287 287 287 284 281 278 275 274 273 269 262 258 253 247 242 238 233 225 221 219 217 215 214 213 211 209 208 206 206 206 206 206 206 207 208 209 212
283 285 286 286 285 285 286 287 288 287 285 282 278 276 274 270 266 261 256 250 244 239 233 226 221 220 218 216 214 212 210 208 207 205 203 203 203 203 203 204 205 206 207 211
283 285 286 286 285 285 287 287 288 288 287 283 280 279 274 268 263 258 253 246 239 232 226 221 218 217 215 212 210 208 206 204 203 201 199 199 201 202 201 202 204 205 208 212
285 286 285 285 286 287 288 288 289 290 288 284 282 279 274 268 262 257 250 243 235 226 222 219 215 212 209 207 205 203 202 201 199 198 197 197 197 199 200 201 203 206 208 210
286 286 285 286 286 287 289 289 290 290 288 286 284 278 270 266 262 255 245 236 228 222 218 214 211 207 203 202 201 200 199 198 197 196 196 195 196 197 199 200 201 203 205 207
286 287 287 286 285 286 287 288 290 290 289 287 283 277 271 265 258 250 238 228 221 217 213 210 206 202 200 200 198 197 196 195 194 193 193 194 195 196 197 198 199 201 204 206
286 287 287 285 284 284 285 288 289 288 286 282 278 276 270 259 251 240 228 220 215 209 205 201 200 198 197 197 195 194 194 192 191 192 192 193 194 195 196 197 198 200 202 203
283 286 285 284 284 284 286 287 285 282 279 277 275 270 260 251 240 226 213 209 204 199 197 196 195 193 193 194 193 192 191 191 191 191 191 191 193 194 195 196 196 198 199 201
280 283 283 282 284 287 289 286 280 275 274 273 269 261 249 236 224 214 204 194 190 189 187 188 188 187 187 188 189 189 189 189 189 189 189 189 190 191 193 193 194 196 198 200
276 278 278 280 284 287 288 284 275 269 264 256 248 242 237 218 197 186 179 176 179 181 181 181 182 182 182 184 184 185 185 185 186 185 185 186 187 188 188 189 190 193 197 198
270 271 271 275 281 285 283 277 271 260 246 229 218 212 206 191 176 170 167 167 170 174 176 176 178 180 182 182 180 179 178 179 179 181 181 182 183 185 186 188 190 192 194 195
Height
5526 5523 5518 5514 5512 5507 5501 5497 5492 5490 5487 5486 5483 5479 5477 5476 5475 5475 5476 5477 5478 5480 5482 5485 5488 5493 5497 5503 5509 5516 5523 5532 5540 5549 5559 5568 5577 5586 5595 5604 5613 5621 5628 5636
5516 5513 5507 5503 5502 5497 5492 5488 5483 5480 5478 5478 5473 5471 5469 5468 5467 5467 5468 5469 5470 5473 5475 5478 5481 5485 5490 5495 5501 5507 5515 5523 5532 5541 5549 5559 5569 5577 5586 5595 5604 5612 5619 5626
5504 5502 5495 5493 5494 5488 5483 5479 5475 5471 5470 5468 5465 5463 5461 5460 5459 5459 5460 5461 5463 5465 5467 5470 5473 5477 5482 5487 5493 5499 5506 5514 5523 5532 5541 5550 5559 5569 5578 5586 5595 5603 5610 5618
5492 5490 5484 5488 5483 5477 5472 5470 5466 5462 5460 5458 5456 5454 5453 5452 5451 5451 5451 5453 5455 5456 5459 5462 5465 5469 5474 5479 5484 5490 5497 5506 5514 5523 5532 5541 5550 5560 5569 5577 5585 5594 5601 5609
5481 5476 5472 5476 5473 5466 5461 5460 5458 5454 5451 5449 5447 5446 5445 5444 5443 5443 5443 5444 5446 5448 5450 5453 5457 5461 5465 5470 5476 5482 5489 5496 5505 5514 5523 5532 5541 5551 5560 5568 5576 5584 5592 5600
5472 5465 5462 5466 5461 5455 5452 5450 5450 5445 5443 5441 5439 5437 5438 5436 5435 5434 5435 5436 5438 5440 5442 5445 5449 5452 5457 5462 5468 5474 5480 5487 5495 5504 5514 5523 5532 5542 5550 5559 5567 5575 5583 5591
5462 5455 5452 5455 5450 5446 5443 5442 5439 5436 5434 5432 5430 5429 5429 5428 5427 5426 5427 5428 5429 5431 5434 5437 5440 5444 5448 5454 5459 5465 5472 5479 5487 5495 5505 5514 5523 5532 5541 5550 5558 5567 5575 5583
5452 5446 5447 5444 5439 5437 5435 5431 5428 5426 5425 5423 5422 5421 5420 5419 5419 5418 5418 5419 5421 5423 5425 5428 5431 5436 5440 5445 5451 5457 5463 5470 5478 5486 5495 5504 5513 5522 5532 5541 5550 5558 5566 5574
5443 5441 5437 5432 5429 5426 5424 5421 5419 5417 5416 5414 5413 5412 5412 5411 5410 5410 5410 5411 5412 5414 5417 5420 5423 5427 5432 5437 5442 5448 5455 5462 5470 5478 5486 5495 5504 5513 5522 5532 5541 5549 5558 5566
5430 5430 5427 5423 5419 5416 5413 5411 5409 5408 5407 5405 5404 5404 5403 5402 5402 5401 5401 5402 5403 5405 5407 5411 5414 5418 5423 5428 5434 5440 5447 5454 5462 5470 5478 5487 5495 5504 5513 5523 5532 5541 5549 5557
5419 5418 5415 5413 5409 5406 5403 5401 5400 5398 5397 5396 5395 5394 5393 5392 5392 5392 5392 5393 5394 5395 5398 5401 5405 5409 5414 5419 5425 5432 5439 5446 5453 5462 5470 5479 5487 5496 5505 5515 5523 5532 5541 5549
5409 5407 5403 5402 5399 5396 5393 5392 5390 5388 5387 5386 5385 5384 5383 5383 5383 5383 5383 5383 5385 5386 5388 5391 5395 5399 5404 5410 5417 5424 5431 5438 5445 5453 5462 5470 5479 5487 5496 5506 5514 5523 5532 5540
5397 5395 5392 5391 5388 5386 5383 5382 5380 5378 5377 5376 5375 5373 5373 5372 5372 5372 5372 5373 5375 5376 5379 5382 5385 5390 5395 5401 5408 5416 5423 5430 5437 5445 5454 5462 5471 5480 5488 5497 5506 5515 5523 5532
5387 5384 5382 5381 5378 5376 5373 5372 5370 5369 5367 5366 5365 5364 5363 5362 5362 5362 5362 5363 5364 5366 5369 5372 5376 5381 5386 5393 5400 5407 5415 5422 5430 5437 5446 5455 5463 5472 5481 5490 5498 5507 5516 5524
5376 5374 5372 5370 5368 5366 5364 5362 5361 5359 5358 5356 5355 5354 5353 5352 5352 5352 5353 5353 5355 5357 5360 5363 5367 5372 5377 5384 5392 5399 5407 5414 5422 5430 5438 5447 5456 5465 5474 5483 5492 5500 5509 5517
5366 5364 5362 5360 5359 5357 5355 5353 5351 5350 5348 5347 5345 5344 5343 5342 5343 5343 5344 5345 5346 5349 5351 5355 5359 5364 5369 5376 5384 5391 5399 5407 5414 5422 5431 5439 5448 5458 5467 5476 5485 5494 5502 5511
5357 5355 5354 5352 5350 5348 5346 5344 5342 5340 5339 5337 5335 5334 5333 5333 5334 5334 5335 5336 5338 5341 5344 5347 5352 5357 5362 5369 5376 5384 5391 5399 5407 5415 5424 5433 5442 5451 5460 5470 5479 5488 5496 5504
5348 5347 5345 5343 5341 5339 5338 5336 5334 5332 5330 5328 5326 5325 5325 5325 5325 5326 5327 5328 5330 5333 5336 5340 5344 5349 5356 5362 5369 5376 5384 5392 5400 5409 5417 5426 5435 5444 5454 5463 5472 5481 5490 5498
5340 5338 5337 5335 5333 5331 5330 5328 5325 5323 5321 5319 5318 5317 5317 5317 5318 5318 5319 5321 5323 5327 5330 5334 5338 5343 5349 5356 5363 5370 5378 5386 5394 5403 5411 5420 5429 5439 5448 5458 5467 5475 5484 5492
5332 5331 5329 5327 5325 5323 5322 5320 5318 5316 5314 5312 5311 5311 5310 5310 5311 5311 5312 5314 5317 5320 5324 5328 5333 5338 5344 5350 5357 5365 5373 5381 5390 5398 5407 5415 5424 5434 5443 5453 5462 5471 5479 5486
5325 5323 5321 5320 5318 5316 5314 5313 5311 5310 5308 5306 5305 5305 5305 5305 5305 5306 5307 5309 5312 5315 5319 5323 5328 5334 5340 5346 5353 5361 5369 5377 5385 5394 5403 5411 5420 5430 5439 5448 5457 5466 5473 5481
5318 5316 5314 5313 5311 5310 5309 5307 5306 5304 5303 5301 5301 5300 5300 5300 5301 5302 5303 5305 5308 5311 5315 5319 5325 5331 5337 5343 5350 5357 5365 5374 5382 5391 5399 5408 5417 5426 5435 5443 5452 5461 5468 5476
5311 5310 5308 5307 5306 5305 5303 5302 5301 5300 5299 5298 5297 5297 5297 5297 5298 5299 5301 5303 5305 5308 5312 5316 5322 5328 5334 5341 5348 5355 5363 5371 5379 5388 5396 5405 5414 5422 5431 5439 5448 5456 5464 5471
5305 5304 5303 5302 5301 5300 5299 5298 5297 5296 5295 5294 5294 5294 5294 5295 5296 5297 5299 5301 5303 5306 5310 5315 5321 5326 5332 5339 5345 5353 5361 5369 5377 5385 5394 5402 5411 5419 5428 5436 5444 5452 5460 5467
5300 5299 5299 5298 5297 5296 5295 5294 5293 5293 5292 5292 5292 5292 5293 5294 5295 5296 5298 5300 5303 5306 5310 5315 5320 5326 5332 5338 5344 5351 5359 5367 5375 5384 5392 5400 5408 5417 5425 5433 5441 5449 5456 5463
5296 5295 5294 5294 5293 5292 5292 5291 5290 5290 5290 5290 5291 5291 5292 5293 5295 5296 5298 5300 5303 5307 5311 5315 5320 5326 5332 5338 5344 5351 5358 5366 5374 5383 5391 5398 5407 5415 5423 5431 5438 5446 5453 5460
5291 5291 5291 5291 5290 5290 5289 5289 5289 5289 5289 5290 5290 5291 5292 5293 5295 5297 5299 5302 5305 5308 5312 5316 5321 5326 5332 5338 5345 5352 5359 5367 5375 5382 5390 5398 5406 5414 5422 5429 5436 5444 5451 5457